GW2742 Weather Reports


Display with metric or nautical units.
time (UTC)temp
F
wind
direction
speed
MPH
gust
MPH
rain 1hr
in
rain 24hr
in
rain mn
in
humidity
%
barometer
mb
20260507040039 52 231 1.0 4.0 0.00 0.00 0.00 29 1011.9
20260507035524 52 193 1.0 3.0 0.00 0.00 0.00 29 1011.8
20260507035023 52 130 1.0 4.0 0.00 0.00 0.00 29 1012.0
20260507034538 52 119 1.0 4.0 0.00 0.00 0.00 28 1012.2
20260507034023 52 115 2.0 5.0 0.00 0.00 0.00 30 1012.0
20260507033531 52 172 2.0 5.0 0.00 0.00 0.00 29 1012.1
20260507033037 52 146 1.0 4.0 0.00 0.00 0.00 30 1012.1
20260507032526 52 34 0.0 5.0 0.00 0.00 0.00 31 1012.3
20260507032023 52 0 0.0 5.0 0.00 0.00 0.00 29 1012.1
20260507031543 52 41 2.0 5.0 0.00 0.00 0.00 29 1011.9
20260507031023 52 235 0.0 4.0 0.00 0.00 0.00 29 1011.8
20260507030526 52 232 1.0 4.0 0.00 0.00 0.00 29 1011.7
20260507030038 52 0 0.0 3.0 0.00 0.00 0.00 29 1011.7
20260507025523 52 0 0.0 3.0 0.00 0.00 0.00 29 1011.7
20260507025026 53 0 0.0 3.0 0.00 0.00 0.00 28 1011.6
20260507024542 53 82 0.0 3.0 0.00 0.00 0.00 27 1011.6
20260507024024 54 0 0.0 3.0 0.00 0.00 0.00 29 1011.6
20260507023525 54 136 0.0 4.0 0.00 0.00 0.00 27 1011.6
20260507023037 54 135 1.0 4.0 0.00 0.00 0.00 27 1011.6
20260507022523 54 179 1.0 3.0 0.00 0.00 0.00 28 1011.8
20260507022024 54 122 0.0 4.0 0.00 0.00 0.00 27 1011.6
20260507021537 55 0 2.0 5.0 0.00 0.00 0.00 27 1011.5
20260507021029 55 0 1.0 6.0 0.00 0.00 0.00 26 1011.5
20260507020526 55 144 2.0 6.0 0.00 0.00 0.00 26 1011.4
20260507020045 55 131 2.0 8.0 0.00 0.00 0.00 27 1011.6
20260507015522 56 124 3.0 8.0 0.00 0.00 0.00 26 1011.5
20260507015029 56 97 3.0 11.0 0.00 0.00 0.00 26 1011.3
20260507014554 56 139 5.0 11.0 0.00 0.00 0.00 25 1011.4
20260507014029 56 146 4.0 9.0 0.00 0.00 0.00 26 1011.3
20260507013522 57 159 3.0 11.0 0.00 0.00 0.00 25 1011.5
20260507013045 57 153 5.0 11.0 0.00 0.00 0.00 24 1011.4
20260507012524 58 158 3.0 11.0 0.00 0.00 0.00 25 1011.3
20260507012025 58 103 3.0 11.0 0.00 0.00 0.00 25 1011.3
20260507011540 58 89 5.0 11.0 0.00 0.00 0.00 24 1011.4
20260507011023 59 97 5.0 10.0 0.00 0.00 0.00 24 1011.4
20260507010522 59 115 4.0 9.0 0.00 0.00 0.00 24 1011.4
20260507010036 59 120 5.0 10.0 0.00 0.00 0.00 24 1011.5
20260507005523 59 170 5.0 10.0 0.00 0.00 0.00 24 1011.6
20260507005023 59 97 4.0 9.0 0.00 0.00 0.00 24 1011.6
20260507004535 60 142 4.0 10.0 0.00 0.00 0.00 24 1011.6
20260507004023 60 114 2.0 10.0 0.00 0.00 0.00 25 1011.6
20260507003523 60 151 5.0 10.0 0.00 0.00 0.00 24 1011.6
20260507003038 60 184 3.0 9.0 0.00 0.00 0.00 25 1011.7
20260507002523 60 159 6.0 9.0 0.00 0.00 0.00 24 1011.6
20260507002023 60 180 4.0 12.0 0.00 0.00 0.00 26 1011.6
20260507001544 60 103 5.0 12.0 0.00 0.00 0.00 23 1011.8
20260507001022 60 174 4.0 11.0 0.00 0.00 0.00 25 1011.8
20260507000526 60 122 5.0 11.0 0.00 0.00 0.00 24 1011.8
20260507000036 60 149 6.0 10.0 0.00 0.00 0.00 24 1011.8
20260506235523 60 146 3.0 10.0 0.00 0.00 0.00 25 1011.8
20260506235022 60 190 6.0 10.0 0.00 0.00 0.00 24 1012.0
20260506234536 60 139 3.0 10.0 0.00 0.00 0.00 26 1012.0
20260506234022 60 143 5.0 13.0 0.00 0.00 0.00 25 1012.0
20260506233523 60 199 5.0 13.0 0.00 0.00 0.00 26 1012.1
20260506233043 60 100 3.0 9.0 0.00 0.00 0.00 26 1012.1
20260506232522 59 114 3.0 9.0 0.00 0.00 0.00 23 1012.1
20260506232023 59 124 4.0 11.0 0.00 0.00 0.00 26 1012.1
20260506231540 59 190 3.0 11.0 0.00 0.00 0.00 26 1012.1
20260506231024 59 91 5.0 12.0 0.00 0.00 0.00 24 1012.2
20260506230522 59 183 5.0 12.0 0.00 0.00 0.00 26 1012.3
20260506230037 59 105 6.0 12.0 0.00 0.00 0.00 24 1012.4
20260506225526 59 143 5.0 12.0 0.00 0.00 0.00 24 1012.3
20260506225029 59 133 4.0 12.0 0.00 0.00 0.00 24 1012.3
20260506224540 59 0 5.0 11.0 0.00 0.00 0.00 25 1012.3
20260506224026 59 103 5.0 11.0 0.00 0.00 0.00 25 1012.5
20260506223526 59 101 5.0 12.0 0.00 0.00 0.00 25 1012.5
20260506223100 59 94 5.0 12.0 0.00 0.00 0.00 25 1012.5
20260506222526 59 122 5.0 12.0 0.00 0.00 0.00 26 1012.6
20260506222027 59 57 4.0 11.0 0.00 0.00 0.00 29 1012.8
20260506221543 59 139 6.0 11.0 0.00 0.00 0.00 25 1012.8
20260506221026 59 153 4.0 10.0 0.00 0.00 0.00 24 1013.0
20260506220527 59 124 4.0 10.0 0.00 0.00 0.00 24 1013.1
20260506220039 59 63 4.0 12.0 0.00 0.00 0.00 24 1013.1
20260506215526 59 8 5.0 13.0 0.00 0.00 0.00 23 1013.1
20260506215026 59 85 5.0 13.0 0.00 0.00 0.00 25 1013.2
20260506214540 58 80 4.0 8.0 0.00 0.00 0.00 27 1013.3
20260506214027 58 144 3.0 8.0 0.00 0.00 0.00 23 1013.3
20260506213526 58 243 1.0 8.0 0.00 0.00 0.00 24 1013.4
20260506213037 58 123 4.0 8.0 0.00 0.00 0.00 25 1013.5
20260506212526 58 103 1.0 9.0 0.00 0.00 0.00 23 1013.6
20260506212026 58 195 4.0 9.0 0.00 0.00 0.00 23 1013.8
20260506211544 57 282 2.0 7.0 0.00 0.00 0.00 25 1013.9
20260506211027 57 174 2.0 7.0 0.00 0.00 0.00 25 1013.9
20260506210527 57 4 3.0 7.0 0.00 0.00 0.00 24 1014.2
20260506210041 57 72 2.0 6.0 0.00 0.00 0.00 27 1014.1
20260506205525 57 237 2.0 5.0 0.00 0.00 0.00 26 1014.2
20260506205026 57 41 1.0 6.0 0.00 0.00 0.00 24 1014.3
20260506204538 57 148 2.0 6.0 0.00 0.00 0.00 25 1014.4
20260506204026 56 169 2.0 13.0 0.00 0.00 0.00 29 1014.3
20260506203526 56 162 4.0 13.0 0.00 0.00 0.00 25 1014.4
20260506203044 56 89 4.0 13.0 0.00 0.00 0.00 26 1014.6
20260506202527 55 83 2.0 8.0 0.00 0.00 0.00 26 1014.7
20260506202027 55 153 3.0 7.0 0.00 0.00 0.00 27 1014.8
20260506201537 55 236 3.0 7.0 0.00 0.00 0.00 26 1014.8
20260506201026 55 42 3.0 7.0 0.00 0.00 0.00 24 1014.9
20260506200526 55 272 4.0 7.0 0.00 0.00 0.00 25 1015.0
20260506200049 55 182 2.0 6.0 0.00 0.00 0.00 36 1015.0
20260506195526 54 1 1.0 7.0 0.00 0.00 0.00 29 1015.1
20260506195028 54 75 3.0 7.0 0.00 0.00 0.00 32 1015.2
20260506194539 54 228 2.0 8.0 0.00 0.00 0.00 35 1015.4
20260506194051 53 243 3.0 10.0 0.00 0.00 0.00 27 1015.4
20260506193526 53 155 3.0 10.0 0.00 0.00 0.00 26 1015.5
20260506193036 53 220 6.0 10.0 0.00 0.00 0.00 27 1015.6
20260506192526 54 206 5.0 8.0 0.00 0.00 0.00 29 1015.7
20260506192026 53 153 3.0 8.0 0.00 0.00 0.00 28 1015.7
20260506191536 53 315 2.0 9.0 0.00 0.00 0.00 27 1015.8
20260506191026 53 190 4.0 10.0 0.00 0.00 0.00 29 1015.8
20260506190528 53 198 5.0 10.0 0.00 0.00 0.00 32 1016.1
20260506190036 52 221 1.0 12.0 0.00 0.00 0.00 30 1016.1
20260506185526 53 150 6.0 12.0 0.00 0.00 0.00 29 1016.3
20260506185027 53 49 2.0 8.0 0.00 0.00 0.00 30 1016.3
20260506184540 53 184 4.0 10.0 0.00 0.00 0.00 30 1016.4
20260506184027 52 238 4.0 12.0 0.00 0.00 0.00 36 1016.5
20260506183527 51 200 6.0 12.0 0.00 0.00 0.00 32 1016.4
20260506183037 51 119 6.0 10.0 0.00 0.00 0.00 34 1016.5
20260506182526 51 122 4.0 9.0 0.00 0.00 0.00 33 1016.7
20260506182025 51 166 4.0 12.0 0.00 0.00 0.00 36 1016.7
20260506181538 51 138 5.0 12.0 0.00 0.00 0.00 35 1016.9
20260506181027 50 144 5.0 12.0 0.00 0.00 0.00 36 1016.8
20260506180529 50 208 7.0 12.0 0.00 0.00 0.00 35 1016.9
20260506180049 50 172 2.0 10.0 0.00 0.00 0.00 34 1017.1
20260506175529 50 0 5.0 10.0 0.00 0.00 0.00 32 1017.3
20260506175027 50 184 3.0 10.0 0.00 0.00 0.00 39 1017.3
20260506174536 49 255 1.0 10.0 0.00 0.00 0.00 36 1017.3
20260506174026 49 135 4.0 10.0 0.00 0.00 0.00 36 1017.6
20260506173525 48 146 1.0 9.0 0.00 0.00 0.00 39 1017.6
20260506173041 48 76 4.0 12.0 0.00 0.00 0.00 36 1017.7
20260506172526 48 88 3.0 12.0 0.00 0.00 0.00 37 1017.8
20260506172030 48 165 6.0 13.0 0.00 0.00 0.00 40 1017.9
20260506171549 47 265 5.0 13.0 0.00 0.00 0.00 40 1017.9
20260506171026 47 264 4.0 9.0 0.00 0.00 0.00 39 1018.0
20260506170526 47 166 2.0 8.0 0.00 0.00 0.00 38 1018.1
20260506170038 47 192 2.0 9.0 0.00 0.00 0.00 38 1018.1
20260506165526 47 172 2.0 9.0 0.00 0.00 0.00 41 1018.2
20260506165027 46 127 4.0 9.0 0.00 0.00 0.00 39 1018.1
20260506164538 46 245 3.0 9.0 0.00 0.00 0.00 41 1018.2
20260506164026 46 51 3.0 6.0 0.00 0.00 0.00 43 1018.0
20260506163522 46 309 3.0 9.0 0.00 0.00 0.00 41 1018.1
20260506163048 46 125 4.0 11.0 0.00 0.00 0.00 42 1018.2
20260506162522 46 198 5.0 11.0 0.00 0.00 0.00 43 1018.2
20260506162022 47 57 3.0 9.0 0.00 0.00 0.00 43 1018.2
20260506161548 46 181 2.0 9.0 0.00 0.00 0.00 44 1018.3
20260506161022 46 148 1.0 7.0 0.00 0.00 0.00 45 1018.4
20260506160529 45 98 3.0 7.0 0.00 0.00 0.00 44 1018.5
20260506160040 45 127 3.0 9.0 0.00 0.00 0.00 47 1018.6
20260506155522 44 91 4.0 9.0 0.00 0.00 0.00 49 1018.7
20260506155022 44 65 3.0 7.0 0.00 0.00 0.00 49 1018.7
20260506154538 44 79 1.0 6.0 0.00 0.00 0.00 50 1018.8
20260506154025 43 0 2.0 6.0 0.00 0.00 0.00 51 1018.9
20260506153523 43 199 2.0 7.0 0.00 0.00 0.00 52 1018.9
20260506153045 43 167 3.0 7.0 0.00 0.00 0.00 53 1019.0
20260506152522 43 75 2.0 4.0 0.00 0.00 0.00 52 1019.1
20260506152025 42 67 1.0 5.0 0.00 0.00 0.00 53 1019.2
20260506151537 41 0 1.0 5.0 0.00 0.00 0.00 53 1019.3
20260506151022 41 92 1.0 5.0 0.00 0.00 0.00 57 1019.3
20260506150522 40 136 1.0 5.0 0.00 0.00 0.00 56 1019.2
20260506150037 40 193 1.0 5.0 0.00 0.00 0.00 55 1019.3
20260506145522 40 141 1.0 4.0 0.00 0.00 0.00 59 1019.2
20260506145025 39 231 1.0 3.0 0.00 0.00 0.00 60 1019.3
20260506144540 38 158 0.0 4.0 0.00 0.00 0.00 60 1019.3
20260506144022 38 158 1.0 4.0 0.00 0.00 0.00 61 1019.5
20260506143525 38 171 1.0 3.0 0.00 0.00 0.00 64 1019.6
20260506143037 37 0 1.0 3.0 0.00 0.00 0.00 61 1019.5
20260506142522 37 220 1.0 3.0 0.00 0.00 0.00 62 1019.6
20260506142022 37 0 0.0 2.0 0.00 0.00 0.00 64 1019.7
20260506141538 36 0 0.0 2.0 0.00 0.00 0.00 67 1019.7
20260506141023 35 0 0.0 2.0 0.00 0.00 0.00 68 1019.8
20260506140523 34 0 0.0 2.0 0.00 0.00 0.00 71 1019.8
20260506140043 33 0 0.0 2.0 0.00 0.00 0.00 70 1019.7
20260506135530 32 0 0.0 3.0 0.00 0.00 0.00 72 1019.7
20260506135027 31 213 0.0 3.0 0.00 0.00 0.00 72 1019.7
20260506134606 31 213 1.0 3.0 0.00 0.00 0.00 73 1019.8
20260506134022 30 213 1.0 3.0 0.00 0.00 0.00 73 1019.8
20260506133521 30 213 1.0 3.0 0.00 0.00 0.00 73 1019.7
20260506133038 29 0 0.0 2.0 0.00 0.00 0.00 75 1019.7
20260506132523 29 0 0.0 3.0 0.00 0.00 0.00 76 1019.8
20260506132023 28 188 1.0 3.0 0.00 0.00 0.00 76 1019.7
20260506131546 28 188 1.0 3.0 0.00 0.00 0.00 77 1019.7
20260506131027 27 188 1.0 3.0 0.00 0.00 0.00 79 1019.6
20260506130532 27 188 1.0 3.0 0.00 0.00 0.00 81 1019.6
20260506130037 26 0 0.0 0.0 0.00 0.00 0.00 85 1019.5
20260506125528 25 0 0.0 0.0 0.00 0.00 0.00 85 1019.4
20260506125026 24 0 0.0 0.0 0.00 0.00 0.00 84 1019.4
20260506124536 23 0 0.0 0.0 0.00 0.00 0.00 84 1019.4
20260506124026 23 0 0.0 0.0 0.00 0.00 0.00 83 1019.1
20260506123526 23 0 0.0 0.0 0.00 0.00 0.00 83 1019.3
20260506123043 23 0 0.0 2.0 0.00 0.00 0.00 84 1019.2
20260506122527 23 0 0.0 2.0 0.00 0.00 0.00 83 1019.2
20260506122026 23 188 0.0 1.0 0.00 0.00 0.00 83 1019.2
20260506121539 23 0 0.0 0.0 0.00 0.00 0.00 82 1019.2
20260506121026 23 0 0.0 1.0 0.00 0.00 0.00 82 1019.1
20260506120530 23 0 0.0 2.0 0.00 0.00 0.00 82 1019.1
20260506120037 24 0 0.0 2.0 0.00 0.00 0.00 82 1019.1
20260506115526 24 188 0.0 2.0 0.00 0.00 0.00 81 1019.1
20260506115026 24 0 0.0 0.0 0.00 0.00 0.00 80 1019.0
20260506114544 24 0 0.0 0.0 0.00 0.00 0.00 80 1019.1
20260506114026 24 0 0.0 1.0 0.00 0.00 0.00 80 1019.1
20260506113526 24 0 0.0 2.0 0.00 0.00 0.00 80 1019.1
20260506113039 24 0 0.0 2.0 0.00 0.00 0.00 81 1019.0
20260506112527 24 188 0.0 2.0 0.00 0.00 0.00 81 1019.0
20260506112026 24 0 0.0 0.0 0.00 0.00 0.00 81 1019.0
20260506111537 24 0 0.0 0.0 0.00 0.00 0.00 81 1018.9
20260506111027 24 0 0.0 0.0 0.00 0.00 0.00 81 1018.8
20260506110526 25 0 0.0 1.0 0.00 0.00 0.00 80 1018.9
20260506110039 25 0 0.0 1.0 0.00 0.00 0.00 81 1018.8
20260506105526 25 0 0.0 2.0 0.00 0.00 0.00 82 1018.9
20260506105025 25 0 0.0 2.0 0.00 0.00 0.00 82 1018.8
20260506104541 24 0 0.0 0.0 0.00 0.00 0.00 81 1018.9
20260506104025 24 0 0.0 0.0 0.00 0.00 0.00 81 1018.8
20260506103526 25 0 0.0 0.0 0.00 0.00 0.00 80 1018.8
20260506103037 25 0 0.0 0.0 0.00 0.00 0.00 80 1018.9
20260506102526 25 0 0.0 1.0 0.00 0.00 0.00 80 1018.9
20260506102027 26 0 0.0 2.0 0.00 0.00 0.00 80 1018.8
20260506101536 26 187 0.0 2.0 0.00 0.00 0.00 80 1018.7
20260506101026 26 187 0.0 2.0 0.00 0.00 0.00 79 1018.8
20260506100526 26 0 0.0 2.0 0.00 0.00 0.00 79 1018.7
20260506100037 26 187 1.0 2.0 0.00 0.00 0.00 79 1018.7
20260506095526 26 0 0.0 2.0 0.00 0.00 0.00 79 1018.7
20260506095027 26 187 0.0 2.0 0.00 0.00 0.00 79 1018.7
20260506094541 26 0 0.0 3.0 0.00 0.00 0.00 79 1018.7
20260506094030 26 187 1.0 3.0 0.00 0.00 0.00 78 1018.8
20260506093527 27 187 2.0 3.0 0.00 0.00 0.00 79 1018.9
20260506093036 27 187 1.0 3.0 0.00 0.00 0.00 79 1018.8
20260506092528 27 187 1.0 3.0 0.00 0.00 0.00 79 1018.9
20260506092028 27 0 1.0 3.0 0.00 0.00 0.00 79 1018.9
20260506091537 27 187 1.0 4.0 0.00 0.00 0.00 79 1018.9
20260506091027 27 187 2.0 4.0 0.00 0.00 0.00 79 1018.8
20260506090526 28 187 1.0 3.0 0.00 0.00 0.00 79 1018.8
20260506090036 28 187 0.0 1.0 0.00 0.00 0.00 79 1018.7
20260506085527 28 0 0.0 1.0 0.00 0.00 0.00 78 1018.7
20260506085027 28 0 0.0 1.0 0.00 0.00 0.00 78 1018.8
20260506084536 28 0 0.0 1.0 0.00 0.00 0.00 78 1018.8
20260506084027 28 187 0.0 2.0 0.00 0.00 0.00 78 1018.8
20260506083527 28 187 0.0 2.0 0.00 0.00 0.00 78 1018.7
20260506083042 29 187 1.0 3.0 0.00 0.00 0.00 78 1018.7
20260506082527 29 187 1.0 3.0 0.00 0.00 0.00 78 1018.7
20260506082028 29 187 2.0 3.0 0.00 0.00 0.00 77 1018.7
20260506081546 29 187 1.0 2.0 0.00 0.00 0.00 78 1018.7
20260506081028 29 187 0.0 2.0 0.00 0.00 0.00 77 1018.7
20260506080529 29 0 1.0 2.0 0.00 0.00 0.00 76 1018.7
20260506073526 30 187 0.0 3.0 0.00 0.00 0.00 76 1018.9
20260506073037 30 187 1.0 3.0 0.00 0.00 0.00 76 1018.8
20260506072526 30 187 1.0 3.0 0.00 0.00 0.00 75 1018.8
20260506072029 30 187 0.0 3.0 0.00 0.00 0.00 75 1018.9
20260506071535 30 188 1.0 3.0 0.00 0.00 0.00 75 1018.9
20260506071027 30 187 0.0 3.0 0.00 0.00 0.00 74 1018.9
20260506070525 30 0 0.0 0.0 0.00 0.00 0.00 73 1019.0
20260506062027 31 0 0.0 0.0 0.00 0.00 0.00 72 1018.9
20260506061541 32 0 0.0 0.0 0.00 0.00 0.00 71 1019.1
20260506061024 32 0 0.0 0.0 0.00 0.00 0.00 71 1018.9
20260506060528 33 0 0.0 0.0 0.00 0.00 0.00 71 1018.8
20260506051027 36 0 0.0 0.0 0.00 0.00 0.00 54 1018.5
20260506050528 36 0 0.0 0.0 0.00 0.00 0.00 53 1018.5
20260506045027 37 0 0.0 3.0 0.00 0.00 0.00 52 1018.5
20260506044539 37 0 0.0 5.0 0.00 0.00 0.00 51 1018.5
20260506044029 38 27 1.0 5.0 0.00 0.00 0.00 50 1018.7
20260506043526 38 24 1.0 5.0 0.00 0.00 0.00 50 1018.5
20260506043036 38 349 1.0 3.0 0.00 0.00 0.00 51 1018.5
20260506042526 38 0 1.0 5.0 0.00 0.00 0.00 51 1018.5
20260506042026 38 17 1.0 5.0 0.00 0.00 0.00 49 1018.5
20260506041539 38 7 2.0 6.0 0.00 0.00 0.00 49 1018.4
20260506041027 38 12 2.0 6.0 0.00 0.00 0.00 49 1018.4
20260506040526 38 47 2.0 4.0 0.00 0.00 0.00 50 1018.3